DW6222 Weather Reports


Display with metric or nautical units.
time (UTC)temp
F
wind
direction
speed
MPH
gust
MPH
rain 1hr
in
rain 24hr
in
rain mn
in
humidity
%
barometer
mb
20260508213040 56 114 9.0 12.0 0.00 0.00 0.00 36 1000.0
20260508211540 56 105 8.0 13.0 0.00 0.00 0.00 36 1000.0
20260508210057 55 119 9.0 17.0 0.00 0.00 0.00 37 1000.4
20260508204559 54 134 10.0 16.0 0.00 0.00 0.00 41 1000.8
20260508203046 53 130 10.0 15.0 0.00 0.00 0.00 41 1000.9
20260508201541 54 123 9.0 19.0 0.00 0.00 0.00 42 1001.3
20260508200048 57 142 6.0 11.0 0.00 0.00 0.00 37 1001.5
20260508194545 57 133 6.0 10.0 0.00 0.00 0.00 35 1001.6
20260508193042 57 92 7.0 10.0 0.00 0.00 0.00 35 1001.8
20260508191548 56 98 6.0 12.0 0.00 0.00 0.00 35 1002.0
20260508190052 56 139 8.0 12.0 0.00 0.00 0.00 36 1002.2
20260508184558 55 127 8.0 14.0 0.00 0.00 0.00 38 1002.5
20260508183044 55 137 8.0 13.0 0.00 0.00 0.00 40 1002.6
20260508181557 55 168 8.0 13.0 0.00 0.00 0.00 37 1002.6
20260508180046 55 161 6.0 9.0 0.00 0.00 0.00 38 1002.9
20260508174545 54 348 3.0 8.0 0.00 0.00 0.00 38 1003.0
20260508173047 53 301 5.0 9.0 0.00 0.00 0.00 42 1003.3
20260508171541 53 324 9.0 14.0 0.00 0.00 0.00 39 1003.5
20260508170042 52 335 9.0 12.0 0.00 0.00 0.00 43 1003.8
20260508164545 52 342 12.0 16.0 0.00 0.00 0.00 44 1003.8
20260508163045 52 0 1.0 10.0 0.00 0.00 0.00 47 1004.0
20260508161549 52 240 1.0 3.0 0.00 0.00 0.00 44 1004.0
20260508160044 51 241 5.0 8.0 0.00 0.00 0.00 46 1004.2
20260508154544 49 213 3.0 9.0 0.00 0.00 0.00 53 1004.2
20260508153040 47 234 4.0 8.0 0.00 0.00 0.00 64 1004.5
20260508151551 46 184 3.0 7.0 0.00 0.00 0.00 67 1004.5
20260508150052 45 207 5.0 6.0 0.00 0.00 0.00 71 1004.7
20260508144601 43 178 1.0 4.0 0.00 0.00 0.00 75 1004.9
20260508143045 42 198 5.0 10.0 0.00 0.00 0.00 78 1005.2
20260508141550 42 208 9.0 11.0 0.00 0.00 0.00 79 1005.1
20260508140051 41 204 6.0 8.0 0.00 0.00 0.00 81 1005.2
20260508134553 40 205 5.0 8.0 0.00 0.00 0.00 83 1005.1
20260508133109 39 208 6.0 8.0 0.00 0.00 0.00 86 1005.3
20260508131547 39 208 6.0 9.0 0.00 0.00 0.00 86 1005.4
20260508130041 38 199 6.0 8.0 0.00 0.00 0.00 89 1005.5
20260508124539 37 0 0.0 3.0 0.00 0.00 0.00 93 1005.5
20260508123058 36 254 1.0 3.0 0.00 0.00 0.00 92 1005.6
20260508121544 35 254 2.0 4.0 0.00 0.00 0.00 91 1005.6
20260508120046 35 254 2.0 4.0 0.00 0.00 0.00 91 1005.5
20260508114540 35 254 3.0 5.0 0.00 0.00 0.00 92 1005.5
20260508113102 35 215 3.0 5.0 0.00 0.00 0.00 92 1005.3
20260508111546 34 227 3.0 5.0 0.00 0.00 0.00 93 1005.3
20260508110052 34 193 2.0 4.0 0.00 0.00 0.00 94 1005.3
20260508104544 34 193 1.0 3.0 0.00 0.00 0.00 94 1005.4
20260508103042 34 193 2.0 4.0 0.00 0.00 0.00 94 1005.5
20260508101541 33 193 1.0 4.0 0.00 0.00 0.00 94 1005.6
20260508100044 32 0 0.0 0.0 0.00 0.00 0.00 93 1005.8
20260508094543 32 0 0.0 0.0 0.00 0.00 0.00 94 1005.8
20260508093044 32 0 0.0 0.0 0.00 0.00 0.00 94 1005.9
20260508091552 32 0 0.0 0.0 0.00 0.00 0.00 93 1005.8
20260508090104 33 0 0.0 0.0 0.00 0.00 0.00 92 1006.0
20260508084546 33 0 0.0 2.0 0.00 0.00 0.00 92 1006.0
20260508083043 34 0 0.0 2.0 0.00 0.00 0.00 92 1006.1
20260508081543 34 0 0.0 0.0 0.00 0.00 0.00 91 1006.3
20260508080039 35 0 0.0 2.0 0.00 0.00 0.00 90 1006.4
20260508074543 35 262 2.0 3.0 0.00 0.00 0.00 90 1006.6
20260508073043 35 262 2.0 4.0 0.00 0.00 0.00 90 1006.7
20260508071553 36 189 2.0 3.0 0.00 0.00 0.00 91 1006.8
20260508070044 36 189 1.0 4.0 0.00 0.00 0.00 91 1006.9
20260508064539 36 189 2.0 3.0 0.00 0.00 0.00 92 1007.0
20260508063043 36 189 3.0 4.0 0.00 0.00 0.00 91 1007.0
20260508061545 36 259 2.0 6.0 0.00 0.00 0.00 91 1007.2
20260508060044 36 266 3.0 4.0 0.00 0.00 0.00 90 1007.3
20260508054545 35 239 1.0 4.0 0.00 0.00 0.00 91 1007.4
20260508053100 35 0 0.0 2.0 0.00 0.00 0.00 90 1007.5
20260508051541 36 82 2.0 3.0 0.00 0.00 0.00 90 1007.5
20260508050043 36 0 0.0 0.0 0.00 0.00 0.00 90 1007.6
20260508044544 36 67 1.0 3.0 0.00 0.00 0.00 89 1007.5
20260508043044 36 67 1.0 2.0 0.00 0.00 0.00 86 1007.7
20260508041607 37 67 0.0 2.0 0.00 0.00 0.00 85 1007.7
20260508040105 38 67 0.0 0.0 0.00 0.00 0.00 85 1007.7
20260508034544 39 0 0.0 0.0 0.00 0.00 0.00 84 1007.8
20260508033044 39 0 0.0 2.0 0.00 0.00 0.00 83 1007.8
20260508031543 39 0 0.0 2.0 0.00 0.00 0.00 83 1007.8
20260508030041 40 0 0.0 0.0 0.00 0.00 0.00 83 1007.7
20260508024541 40 0 0.0 3.0 0.00 0.00 0.00 83 1007.7
20260508023045 40 0 0.0 4.0 0.00 0.00 0.00 82 1007.7
20260508021544 41 117 3.0 8.0 0.00 0.00 0.00 79 1007.7
20260508020050 41 103 5.0 9.0 0.00 0.00 0.00 76 1007.6
20260508014546 42 115 7.0 9.0 0.00 0.00 0.00 76 1007.3
20260508013041 42 90 7.0 10.0 0.00 0.00 0.00 76 1007.2
20260508011549 43 124 4.0 11.0 0.00 0.00 0.00 75 1007.2
20260508010046 44 125 7.0 11.0 0.00 0.00 0.00 69 1007.2
20260508004544 46 170 8.0 11.0 0.00 0.00 0.00 63 1007.1
20260508003044 47 248 6.0 10.0 0.00 0.00 0.00 58 1007.1
20260508001546 47 281 4.0 6.0 0.00 0.00 0.00 57 1007.1
20260508000043 47 298 3.0 6.0 0.00 0.00 0.00 59 1007.1
20260507234548 47 325 5.0 11.0 0.00 0.00 0.00 60 1007.1
20260507233057 47 334 1.0 13.0 0.00 0.00 0.00 60 1007.1
20260507231544 47 326 9.0 19.0 0.00 0.00 0.00 60 1007.4
20260507230046 47 337 10.0 15.0 0.00 0.00 0.00 62 1007.4
20260507224553 46 347 5.0 9.0 0.00 0.00 0.00 61 1007.3
20260507223040 47 333 10.0 15.0 0.00 0.00 0.00 59 1007.4
20260507221538 47 324 17.0 21.0 0.00 0.00 0.00 58 1007.2
20260507220044 47 308 16.0 20.0 0.00 0.00 0.00 57 1007.2
20260507214542 46 291 12.0 25.0 0.00 0.00 0.00 59 1007.3